sat.trackr.live / text

‹ back to catalog

STARLINK-4471

NORAD 53664 · 2022-105S

PAYLOAD ACTIVE UNKNOWN

§ Identity

Operator
Country
US
Launch date
2022-08-31
Launch site
AFWTR
Launch vehicle
Mass (kg)
RCS (m²)

Purposes: comms

External: N2YO · Heavens-Above · Gunter

§ Orbital elements

Epoch: 2026-09-20T21:47:14.163648Z

Period
93.91 min
Inclination
97.2831°
Eccentricity
0.0002092
Mean motion
15.33436389 rev/d
Perigee alt
464.1 km
Apogee alt
467.0 km
Semi-major
6,843.7 km
B*
8.7759e-6
RAAN
140.6695°
Arg perigee
87.2124°
Mean anomaly
272.9358°
Rev number
22,280

§ Raw data

STARLINK-44711 53664U 22105S   26263.90780282  .00000208  00000+0  87759-5 0  99992 53664  97.2831 140.6695 0002092  87.2124 272.9358 15.33436389222809

JSON: /api/v1/satellites/53664 · /tle

For live sub-satellite position, see the globe view (requires WebGL).

§ Visibility from observer

Set your observer location to see the next 7 days of passes ≥ 10°. The values pass through the URL so the page stays shareable.

No JS? Fill the form by hand. The geolocation button needs JavaScript.